Location: Holkham
(52.9500°N, 0.8167°E)
Time: 15:15:54
(UTC+00:00)

Cosmos 1805 Rocket - Pass Details

Date: 19 May 2025
Orbit: 600 x 623 km, 82.5° (Epoch: 17 June)

Event Time Altitude Azimuth Distance (km) Brightness Sun altitude
Rises 23:00:51 0° 350° (N) 2,920 8.9 -16.2°
Reaches altitude 10° 23:03:06 10° 353° (N) 2,008 7.5 -16.3°
Maximum altitude 23:07:32 70° 76° (ENE) 668 3.7 -16.4°
Enters shadow 23:09:38 30° 154° (SSE) 1,114 4.3 -16.5°
